Back to catalog

COSMOS 2251 DEB

AliveLEO
NORAD 37531·DEBRIS·🇷🇺 Russia

Launched Jun 16, 1993 from Plesetsk Cosmodrome

Loading…

Next Passes (next 24 hours)

TLE

StaleSource: Space-Track

Epoch: Sep 4, 2026, 23:10 UTC

1 37531U 93036BNL 26247.96557344  .00004264  00000-0  72715-3 0  9995
2 37531  74.0024 110.7720 0035521 130.8074 229.6187 14.68897115739559

Track COSMOS 2251 DEB in real time with AllMySat

Download on the App Store